Погода в Камышах

Россия / Курганская область     55°01′33″N   64°54′42″E
темп.,
°C
ветер,
м/с
пор.,
м/с
влажн.,
%
обл.,
%
осадки,
мм/ч
давл.,
гПа
погр.,
м
17 июня, чт
чт1723:00+20зсз35695 0.0 101370
02:00+19з116511 0.0 101211
05:00+18зсз226876 0.0 101124
08:00+23ююв0056100 0.0 1010167
11:00+28ююз4542100 0.0 1008676
14:00+31зюз583596 0.0 10061448
17:00+32з31030100 0.0 10022423
20:00+25ссз81360100 0.0 1002483
18 июня, пт
пт1823:00+17с0194100 3.4 100414
02:00+17ссз4894100 0.3 1004367
05:00+15ссз61194100 1.7 1005569
08:00+13с81579100 0.6 1007693
11:00+14с7125746 0.6 10101025
14:00+19с9113516 0.0 10102302
17:00+19с9113497 0.0 10122987
20:00+16с6114091 0.0 1014544
19 июня, сб
сб1923:00+11сз495418 0.0 1016143
02:00+11сз512578 0.0 1016255
05:00+10сз513575 0.0 1016272
08:00+15ссз694667 0.0 1017581
11:00+19ссз8103388 0.0 10162762
14:00+19сз783898 0.0 10162363
17:00+18сз784897 0.0 10152287
20:00+16сз61067100 0.1 1015582
20 июня, вс
вс2023:00+14зсз4775100 0.1 1014267
02:00+12зсз348797 0.0 101379
05:00+13зсз2589100 0.0 1012178
08:00+16зсз2480100 0.0 1012467
11:00+19сз5668100 0.1 10101107
14:00+17зсз368367 0.3 1010332
17:00+23ссз696330 0.5 10091388
20:00+21ссз476447 0.6 1009173
21 июня, пн
пн2123:00+18с613485 0.6 1012562
02:00+13ссз511560 0.0 1013245
05:00+11ссз37670 0.0 1016138
08:00+17сз47504 0.0 1016583
11:00+21сз710350 0.0 10151809
14:00+22ссз9113115 0.0 10151890
17:00+18ссз61138100 0.0 1016803
20:00+16ссз2556100 0.0 1015234